Starlink 11256

operational
NORAD ID: 60904 Int'l Des: 2024-154 Owner: SPXS Country: US Constellation: starlink
LEOCIRCULAR

Starlink 11256について

説明を読み込み中...

リアルタイム位置

3D地球を読み込み中...

次回通過

高度履歴

Altitude vs Time

uPlot chart will show altitude changes over time

軌道要素

1 60904U 24154B 26034.14898133 .00000593 00000-0 97565-5 0 9991
2 60904 53.1596 301.2255 0001183 101.6491 258.4659 15.69698484 83092
Epoch: Feb 3, 2026 • Age: 25 hours

現在のステータス

高度 372.0 km
速度 7.69 km/s
衛星直下点 -36.76°S, 59.44°W
打ち上げ日 Aug 31, 2024
運用期間 1.4 years
タイプ internet

技術仕様

分類 Payload
質量 960.00 kg
乾燥質量 910.00 kg
総質量 960.00 kg
長さ 0.30 m
直径 4.10 m
スパン 29.00 m
形状 Box + pan
製造者 SPXS
バスタイプ Starlink V2MD
フェーズステータス In Orbit
所有者/国 SPXS/US

大規模コンステレーション

Loading constellations...